owner,sensor,date,latitude,longitude,vertical_datum,wind_speed,wind_to_direction,wind_speed_of_gust,qcFlag 
TABS,ioos:station:wmo:42046:1,2005-06-01T00:00:00Z,27.8903,-94.0367,4.0,1.714059509,145.9393813,2.45,'11111222,11111222,11111222' 
TABS,ioos:station:wmo:42046:1,2005-06-01T00:30:00Z,27.8903,-94.0367,4.0,0.62289646,174.4726832,1.8,'11111222,11111222,11111222' 
TABS,ioos:station:wmo:42046:1,2005-06-01T01:00:00Z,27.8903,-94.0367,4.0,0.20808652,324.7822789,0.77,'11111222,11111222,11111222' 
TABS,ioos:station:wmo:42046:1,2005-06-01T01:30:00Z,27.8903,-94.0367,4.0,0.46141088,209.8990424,0.93,'11111222,11111222,11111222' 
TABS,ioos:station:wmo:42046:1,2005-06-01T02:00:00Z,27.8903,-94.0367,4.0,0.156524758,26.5647786,0.55,'11111222,11111222,11111222' 
TABS,ioos:station:wmo:42046:1,2005-06-01T02:30:00Z,27.8903,-94.0367,4.0,1.024158191,35.86255466,1.68,'11111222,11111222,11111222' 
TABS,ioos:station:wmo:42046:1,2005-06-01T03:00:00Z,27.8903,-94.0367,4.0,1.440624864,121.3733527,2.13,'11111222,11111222,11111222' 
TABS,ioos:station:wmo:42046:1,2005-06-01T03:30:00Z,27.8903,-94.0367,4.0,1.284717868,121.9584557,2.66,'11111222,11111222,11111222' 
TABS,ioos:station:wmo:42046:1,2005-06-01T04:00:00Z,27.8903,-94.0367,4.0,1.108602724,158.2948245,1.63,'11111222,11111222,11111222' 
TABS,ioos:station:wmo:42046:1,2005-06-01T04:30:00Z,27.8903,-94.0367,4.0,0.974525526,141.2486727,1.83,'11111222,11111222,11111222' 
TABS,ioos:station:wmo:42046:1,2005-06-01T05:00:00Z,27.8903,-94.0367,4.0,1.279062156,99.90458097,1.83,'11111222,11111222,11111222' 
TABS,ioos:station:wmo:42046:1,2005-06-01T05:30:00Z,27.8903,-94.0367,4.0,1.448102206,140.042755,2.26,'11111222,11111222,11111222' 
TABS,ioos:station:wmo:42046:1,2005-06-01T06:00:00Z,27.8903,-94.0367,4.0,1.73104015,147.5037083,2.18,'11111222,11111222,11111222' 
TABS,ioos:station:wmo:42046:1,2005-06-01T06:30:00Z,27.8903,-94.0367,4.0,1.655294536,154.9833755,2.26,'11111222,11111222,11111222' 
TABS,ioos:station:wmo:42046:1,2005-06-01T07:00:00Z,27.8903,-94.0367,4.0,2.632299375,147.0950445,3.29,'11111222,11111222,11111222' 
TABS,ioos:station:wmo:42046:1,2005-06-01T07:30:00Z,27.8903,-94.0367,4.0,2.952033198,163.4683185,3.69,'11111222,11111222,11111222' 
TABS,ioos:station:wmo:42046:1,2005-06-01T08:00:00Z,27.8903,-94.0367,4.0,3.254443117,177.0059363,4.49,'11111222,11111222,11111222' 
TABS,ioos:station:wmo:42046:1,2005-06-01T08:30:00Z,27.8903,-94.0367,4.0,3.20224921,182.1477909,3.99,'11111222,11111222,11111222' 
TABS,ioos:station:wmo:42046:1,2005-06-01T09:00:00Z,27.8903,-94.0367,4.0,2.840070422,179.5967267,3.49,'11111222,11111222,11111222' 
TABS,ioos:station:wmo:42046:1,2005-06-01T09:30:00Z,27.8903,-94.0367,4.0,2.6337236,176.9531281,3.56,'11111222,11111222,11111222' 
TABS,ioos:station:wmo:42046:1,2005-06-01T10:00:00Z,27.8903,-94.0367,4.0,1.880425484,181.2190828,2.79,'11111222,11111222,11111222' 
TABS,ioos:station:wmo:42046:1,2005-06-01T10:30:00Z,27.8903,-94.0367,4.0,2.135275158,184.0284647,2.93,'11111222,11111222,11111222' 
TABS,ioos:station:wmo:42046:1,2005-06-01T11:00:00Z,27.8903,-94.0367,4.0,2.030270918,161.029847,2.88,'11111222,11111222,11111222' 
TABS,ioos:station:wmo:42046:1,2005-06-01T11:30:00Z,27.8903,-94.0367,4.0,1.3809055,177.9251889,2.04,'11111222,11111222,11111222' 
TABS,ioos:station:wmo:42046:1,2005-06-01T12:00:00Z,27.8903,-94.0367,4.0,1.61644672,188.1804212,2.43,'11111222,11111222,11111222' 
TABS,ioos:station:wmo:42046:1,2005-06-01T12:30:00Z,27.8903,-94.0367,4.0,1.686090152,207.1730881,2.42,'11111222,11111222,11111222' 
TABS,ioos:station:wmo:42046:1,2005-06-01T13:00:00Z,27.8903,-94.0367,4.0,1.528561415,237.5576321,2.18,'11111222,11111222,11111222' 
TABS,ioos:station:wmo:42046:1,2005-06-01T13:30:00Z,27.8903,-94.0367,4.0,1.775894141,242.1363397,2.59,'11111222,11111222,11111222' 
TABS,ioos:station:wmo:42046:1,2005-06-01T14:00:00Z,27.8903,-94.0367,4.0,1.569777054,243.9247054,2.35,'11111222,11111222,11111222' 
TABS,ioos:station:wmo:42046:1,2005-06-01T14:30:00Z,27.8903,-94.0367,4.0,1.421442929,225.8552006,2.36,'11111222,11111222,11111222' 
TABS,ioos:station:wmo:42046:1,2005-06-01T15:00:00Z,27.8903,-94.0367,4.0,2.821790212,223.9950216,3.38,'11111222,11111222,11111222' 
TABS,ioos:station:wmo:42046:1,2005-06-01T15:30:00Z,27.8903,-94.0367,4.0,3.595177325,231.6638423,4.63,'11111222,11111222,11111222' 
TABS,ioos:station:wmo:42046:1,2005-06-01T16:00:00Z,27.8903,-94.0367,4.0,5.376709031,250.5540996,7.16,'11111222,11111222,11111222' 
TABS,ioos:station:wmo:42046:1,2005-06-01T16:30:00Z,27.8903,-94.0367,4.0,10.73205479,291.1371197,13.13,'11111222,11111222,11111222' 
TABS,ioos:station:wmo:42046:1,2005-06-01T17:00:00Z,27.8903,-94.0367,4.0,7.768577733,298.6103928,10.55,'11111222,11111222,11111222' 
TABS,ioos:station:wmo:42046:1,2005-06-01T17:30:00Z,27.8903,-94.0367,4.0,5.720078671,269.6995011,7.35,'11111222,11111222,11111222' 
TABS,ioos:station:wmo:42046:1,2005-06-01T18:00:00Z,27.8903,-94.0367,4.0,7.850159234,232.7652531,9.4,'11111222,11111222,11111222' 
TABS,ioos:station:wmo:42046:1,2005-06-01T18:30:00Z,27.8903,-94.0367,4.0,4.898744737,201.4323451,6.54,'11111222,11111222,11111222' 
TABS,ioos:station:wmo:42046:1,2005-06-01T19:00:00Z,27.8903,-94.0367,4.0,3.194620478,155.2000751,4.57,'11111222,11111222,11111222' 
TABS,ioos:station:wmo:42046:1,2005-06-01T19:30:00Z,27.8903,-94.0367,4.0,4.526566027,136.2534581,6.08,'11111222,11111222,11111222' 
TABS,ioos:station:wmo:42046:1,2005-06-01T20:00:00Z,27.8903,-94.0367,4.0,3.323627536,198.0535143,6.03,'11111222,11111222,11111222' 
TABS,ioos:station:wmo:42046:1,2005-06-01T20:30:00Z,27.8903,-94.0367,4.0,2.61629509,242.9453165,5.66,'11111222,11111222,11111222' 
TABS,ioos:station:wmo:42046:1,2005-06-01T21:00:00Z,27.8903,-94.0367,4.0,1.566045976,339.8291833,2.33,'11111222,11111222,11111222' 
TABS,ioos:station:wmo:42046:1,2005-06-01T21:30:00Z,27.8903,-94.0367,4.0,2.474206944,346.9184179,4.16,'11111222,11111222,11111222' 
TABS,ioos:station:wmo:42046:1,2005-06-01T22:00:00Z,27.8903,-94.0367,4.0,5.985716331,349.2155169,7.56,'11111222,11111222,11111222' 
TABS,ioos:station:wmo:42046:1,2005-06-01T22:30:00Z,27.8903,-94.0367,4.0,6.345273832,356.0235496,7.52,'11111222,11111222,11111222' 
TABS,ioos:station:wmo:42046:1,2005-06-01T23:00:00Z,27.8903,-94.0367,4.0,6.221334262,346.5219983,7.4,'11111222,11111222,11111222' 
TABS,ioos:station:wmo:42046:1,2005-06-01T23:30:00Z,27.8903,-94.0367,4.0,5.290538725,333.386368,6.57,'11111222,11111222,11111222' 
TABS,ioos:station:wmo:42046:1,2005-06-02T00:00:00Z,27.8903,-94.0367,4.0,3.719489212,315.4355947,5.34,'11111222,11111222,11111222' 
TABS,ioos:station:wmo:42046:1,2005-06-02T00:30:00Z,27.8903,-94.0367,4.0,3.194526569,324.1702982,4.17,'11111222,11111222,11111222' 
TABS,ioos:station:wmo:42046:1,2005-06-02T01:00:00Z,27.8903,-94.0367,4.0,2.430576063,327.9445068,3.59,'11111222,11111222,11111222' 
TABS,ioos:station:wmo:42046:1,2005-06-02T01:30:00Z,27.8903,-94.0367,4.0,2.204382,340.6607234,3.22,'11111222,11111222,11111222' 
TABS,ioos:station:wmo:42046:1,2005-06-02T02:00:00Z,27.8903,-94.0367,4.0,1.99922485,334.2038234,2.73,'11111222,11111222,11111222' 
TABS,ioos:station:wmo:42046:1,2005-06-02T02:30:00Z,27.8903,-94.0367,4.0,2.082786595,311.4963713,2.92,'11111222,11111222,11111222' 
TABS,ioos:station:wmo:42046:1,2005-06-02T03:00:00Z,27.8903,-94.0367,4.0,1.363084737,284.4440019,2.01,'11111222,11111222,11111222' 
TABS,ioos:station:wmo:42046:1,2005-06-02T03:30:00Z,27.8903,-94.0367,4.0,1.164302366,274.9270984,1.7,'11111222,11111222,11111222' 
TABS,ioos:station:wmo:42046:1,2005-06-02T04:00:00Z,27.8903,-94.0367,4.0,0.840773453,243.1302497,1.59,'11111222,11111222,11111222' 
TABS,ioos:station:wmo:42046:1,2005-06-02T04:30:00Z,27.8903,-94.0367,4.0,1.214001647,306.9642029,2.13,'11111222,11111222,11111222' 
TABS,ioos:station:wmo:42046:1,2005-06-02T05:00:00Z,27.8903,-94.0367,4.0,1.199416525,277.1842506,2.1,'11111222,11111222,11111222' 
TABS,ioos:station:wmo:42046:1,2005-06-02T05:30:00Z,27.8903,-94.0367,4.0,0.765767589,319.2362797,1.34,'11111222,11111222,11111222' 
TABS,ioos:station:wmo:42046:1,2005-06-02T06:00:00Z,27.8903,-94.0367,4.0,0.384837628,245.4328861,0.98,'11111222,11111222,11111222' 
TABS,ioos:station:wmo:42046:1,2005-06-02T06:30:00Z,27.8903,-94.0367,4.0,1.579525245,221.6637763,2.34,'11111222,11111222,11111222' 
TABS,ioos:station:wmo:42046:1,2005-06-02T07:00:00Z,27.8903,-94.0367,4.0,2.41,180.0002105,3.32,'11111222,11111222,11111222' 
TABS,ioos:station:wmo:42046:1,2005-06-02T07:30:00Z,27.8903,-94.0367,4.0,2.510657284,169.6749764,3.73,'11111222,11111222,11111222' 
TABS,ioos:station:wmo:42046:1,2005-06-02T08:00:00Z,27.8903,-94.0367,4.0,3.264965543,176.8398562,4.65,'11111222,11111222,11111222' 
TABS,ioos:station:wmo:42046:1,2005-06-02T08:30:00Z,27.8903,-94.0367,4.0,3.146823796,187.4865496,4.06,'11111222,11111222,11111222' 
TABS,ioos:station:wmo:42046:1,2005-06-02T09:00:00Z,27.8903,-94.0367,4.0,2.783522948,182.8831672,3.46,'11111222,11111222,11111222' 
TABS,ioos:station:wmo:42046:1,2005-06-02T09:30:00Z,27.8903,-94.0367,4.0,2.360084744,196.7459218,3.17,'11111222,11111222,11111222' 
TABS,ioos:station:wmo:42046:1,2005-06-02T10:00:00Z,27.8903,-94.0367,4.0,1.95440528,207.0896301,2.85,'11111222,11111222,11111222' 
TABS,ioos:station:wmo:42046:1,2005-06-02T10:30:00Z,27.8903,-94.0367,4.0,2.083890592,195.3035221,2.79,'11111222,11111222,11111222' 
TABS,ioos:station:wmo:42046:1,2005-06-02T11:00:00Z,27.8903,-94.0367,4.0,1.808784122,188.2646852,2.45,'11111222,11111222,11111222' 
TABS,ioos:station:wmo:42046:1,2005-06-02T11:30:00Z,27.8903,-94.0367,4.0,2.393532954,204.9592003,3.15,'11111222,11111222,11111222' 
TABS,ioos:station:wmo:42046:1,2005-06-02T12:00:00Z,27.8903,-94.0367,4.0,2.216393467,190.3975197,3.03,'11111222,11111222,11111222' 
TABS,ioos:station:wmo:42046:1,2005-06-02T12:30:00Z,27.8903,-94.0367,4.0,1.610031056,202.2641535,2.33,'11111222,11111222,11111222' 
TABS,ioos:station:wmo:42046:1,2005-06-02T13:00:00Z,27.8903,-94.0367,4.0,1.56588633,208.2017727,2.09,'11111222,11111222,11111222' 
TABS,ioos:station:wmo:42046:1,2005-06-02T13:30:00Z,27.8903,-94.0367,4.0,2.182773465,191.361595,2.78,'11111222,11111222,11111222' 
TABS,ioos:station:wmo:42046:1,2005-06-02T14:00:00Z,27.8903,-94.0367,4.0,2.070096616,180.5537744,3.2,'11111222,11111222,11111222' 
TABS,ioos:station:wmo:42046:1,2005-06-02T14:30:00Z,27.8903,-94.0367,4.0,2.270352396,193.2406994,3.06,'11111222,11111222,11111222' 
TABS,ioos:station:wmo:42046:1,2005-06-02T15:00:00Z,27.8903,-94.0367,4.0,2.571575393,206.0669891,3.57,'11111222,11111222,11111222' 
TABS,ioos:station:wmo:42046:1,2005-06-02T15:30:00Z,27.8903,-94.0367,4.0,3.370103856,222.1136934,4.52,'11111222,11111222,11111222' 
TABS,ioos:station:wmo:42046:1,2005-06-02T16:00:00Z,27.8903,-94.0367,4.0,2.036000982,216.8137393,2.88,'11111222,11111222,11111222' 
TABS,ioos:station:wmo:42046:1,2005-06-02T16:30:00Z,27.8903,-94.0367,4.0,1.922836447,212.0371041,2.87,'11111222,11111222,11111222' 
TABS,ioos:station:wmo:42046:1,2005-06-02T17:00:00Z,27.8903,-94.0367,4.0,2.389497855,220.7574578,3.21,'11111222,11111222,11111222' 
TABS,ioos:station:wmo:42046:1,2005-06-02T17:30:00Z,27.8903,-94.0367,4.0,2.261769219,248.1986415,3.33,'11111222,11111222,11111222' 
TABS,ioos:station:wmo:42046:1,2005-06-02T18:00:00Z,27.8903,-94.0367,4.0,1.520822146,271.8840458,2.48,'11111222,11111222,11111222' 
TABS,ioos:station:wmo:42046:1,2005-06-02T18:30:00Z,27.8903,-94.0367,4.0,1.459623239,248.7088946,2.51,'11111222,11111222,11111222' 
TABS,ioos:station:wmo:42046:1,2005-06-02T19:00:00Z,27.8903,-94.0367,4.0,1.706985647,246.8896108,3.0,'11111222,11111222,11111222' 
TABS,ioos:station:wmo:42046:1,2005-06-02T19:30:00Z,27.8903,-94.0367,4.0,1.432934053,252.9561059,2.36,'11111222,11111222,11111222' 
TABS,ioos:station:wmo:42046:1,2005-06-02T20:00:00Z,27.8903,-94.0367,4.0,1.408012784,239.2456778,2.4,'11111222,11111222,11111222' 
TABS,ioos:station:wmo:42046:1,2005-06-02T20:30:00Z,27.8903,-94.0367,4.0,1.196411301,253.98886,2.53,'11111222,11111222,11111222' 
TABS,ioos:station:wmo:42046:1,2005-06-02T21:00:00Z,27.8903,-94.0367,4.0,0.74303432,298.9796399,1.81,'11111222,11111222,11111222' 
TABS,ioos:station:wmo:42046:1,2005-06-02T21:30:00Z,27.8903,-94.0367,4.0,0.885663593,295.4076587,1.79,'11111222,11111222,11111222' 
TABS,ioos:station:wmo:42046:1,2005-06-02T22:00:00Z,27.8903,-94.0367,4.0,0.61,270.0,1.13,'11111222,11111222,11111222' 
TABS,ioos:station:wmo:42046:1,2005-06-02T22:30:00Z,27.8903,-94.0367,4.0,0.690289794,1.660068028,2.24,'11111222,11111222,11111222' 
TABS,ioos:station:wmo:42046:1,2005-06-02T23:00:00Z,27.8903,-94.0367,4.0,1.417921013,78.61042602,2.43,'11111222,11111222,11111222' 
TABS,ioos:station:wmo:42046:1,2005-06-02T23:30:00Z,27.8903,-94.0367,4.0,1.515849597,75.87169548,2.48,'11111222,11111222,11111222' 
TABS,ioos:station:wmo:42046:1,2005-06-03T00:00:00Z,27.8903,-94.0367,4.0,2.691412269,81.23725206,4.07,'11111222,11111222,11111222' 
TABS,ioos:station:wmo:42046:1,2005-06-03T00:30:00Z,27.8903,-94.0367,4.0,3.211557255,88.21524508,4.23,'11111222,11111222,11111222' 
TABS,ioos:station:wmo:42046:1,2005-06-03T01:00:00Z,27.8903,-94.0367,4.0,3.829908615,95.84497313,5.47,'11111222,11111222,11111222' 
TABS,ioos:station:wmo:42046:1,2005-06-03T01:30:00Z,27.8903,-94.0367,4.0,4.855193096,98.64787004,5.91,'11111222,11111222,11111222' 
TABS,ioos:station:wmo:42046:1,2005-06-03T02:00:00Z,27.8903,-94.0367,4.0,5.116805644,106.345689,6.14,'11111222,11111222,11111222' 
TABS,ioos:station:wmo:42046:1,2005-06-03T02:30:00Z,27.8903,-94.0367,4.0,5.188882346,115.3307812,6.55,'11111222,11111222,11111222' 
TABS,ioos:station:wmo:42046:1,2005-06-03T03:00:00Z,27.8903,-94.0367,4.0,5.221800456,112.0462828,6.66,'11111222,11111222,11111222' 
TABS,ioos:station:wmo:42046:1,2005-06-03T03:30:00Z,27.8903,-94.0367,4.0,5.908104603,122.9103763,7.51,'11111222,11111222,11111222' 
TABS,ioos:station:wmo:42046:1,2005-06-03T04:00:00Z,27.8903,-94.0367,4.0,5.962499476,122.117774,7.64,'11111222,11111222,11111222' 
TABS,ioos:station:wmo:42046:1,2005-06-03T04:30:00Z,27.8903,-94.0367,4.0,5.878248038,119.2253666,7.26,'11111222,11111222,11111222' 
TABS,ioos:station:wmo:42046:1,2005-06-03T05:00:00Z,27.8903,-94.0367,4.0,6.280007962,126.7789973,8.2,'11111222,11111222,11111222' 
TABS,ioos:station:wmo:42046:1,2005-06-03T05:30:00Z,27.8903,-94.0367,4.0,6.477237065,135.3756093,8.29,'11111222,11111222,11111222' 
TABS,ioos:station:wmo:42046:1,2005-06-03T06:00:00Z,27.8903,-94.0367,4.0,6.477345135,134.4999298,8.38,'11111222,11111222,11111222' 
TABS,ioos:station:wmo:42046:1,2005-06-03T06:30:00Z,27.8903,-94.0367,4.0,6.106275461,142.5861725,8.13,'11111222,11111222,11111222' 
TABS,ioos:station:wmo:42046:1,2005-06-03T07:00:00Z,27.8903,-94.0367,4.0,5.843030036,139.3032877,7.62,'11111222,11111222,11111222' 
TABS,ioos:station:wmo:42046:1,2005-06-03T07:30:00Z,27.8903,-94.0367,4.0,5.772183296,142.6737906,7.47,'11111222,11111222,11111222' 
TABS,ioos:station:wmo:42046:1,2005-06-03T08:00:00Z,27.8903,-94.0367,4.0,6.150934888,140.4094112,7.62,'11111222,11111222,11111222' 
TABS,ioos:station:wmo:42046:1,2005-06-03T08:30:00Z,27.8903,-94.0367,4.0,6.458242795,143.6272209,8.39,'11111222,11111222,11111222' 
TABS,ioos:station:wmo:42046:1,2005-06-03T09:00:00Z,27.8903,-94.0367,4.0,6.286763873,142.2372208,7.76,'11111222,11111222,11111222' 
TABS,ioos:station:wmo:42046:1,2005-06-03T09:30:00Z,27.8903,-94.0367,4.0,6.520506115,148.6748543,8.39,'11111222,11111222,11111222' 
TABS,ioos:station:wmo:42046:1,2005-06-03T10:00:00Z,27.8903,-94.0367,4.0,6.195038337,144.9249275,8.08,'11111222,11111222,11111222' 
TABS,ioos:station:wmo:42046:1,2005-06-03T10:30:00Z,27.8903,-94.0367,4.0,6.084734998,151.750541,7.55,'11111222,11111222,11111222' 
TABS,ioos:station:wmo:42046:1,2005-06-03T11:00:00Z,27.8903,-94.0367,4.0,6.259337026,155.1548029,8.13,'11111222,11111222,11111222' 
TABS,ioos:station:wmo:42046:1,2005-06-03T11:30:00Z,27.8903,-94.0367,4.0,6.569665136,153.1231992,8.63,'11111222,11111222,11111222' 
TABS,ioos:station:wmo:42046:1,2005-06-03T12:00:00Z,27.8903,-94.0367,4.0,6.680628713,150.595807,8.87,'11111222,11111222,11111222' 
TABS,ioos:station:wmo:42046:1,2005-06-03T12:30:00Z,27.8903,-94.0367,4.0,6.127846277,152.3897965,7.74,'11111222,11111222,11111222' 
TABS,ioos:station:wmo:42046:1,2005-06-03T13:00:00Z,27.8903,-94.0367,4.0,5.823074789,155.7680354,7.58,'11111222,11111222,11111222' 
TABS,ioos:station:wmo:42046:1,2005-06-03T13:30:00Z,27.8903,-94.0367,4.0,5.966472995,165.6379306,7.52,'11111222,11111222,11111222' 
TABS,ioos:station:wmo:42046:1,2005-06-03T14:00:00Z,27.8903,-94.0367,4.0,6.102753477,166.7382182,8.28,'11111222,11111222,11111222' 
TABS,ioos:station:wmo:42046:1,2005-06-03T14:30:00Z,27.8903,-94.0367,4.0,5.529737788,172.309727,7.45,'11111222,11111222,11111222' 
TABS,ioos:station:wmo:42046:1,2005-06-03T15:00:00Z,27.8903,-94.0367,4.0,6.500830716,165.0234095,8.49,'11111222,11111222,11111222' 
TABS,ioos:station:wmo:42046:1,2005-06-03T15:30:00Z,27.8903,-94.0367,4.0,5.732686979,170.8665311,7.6,'11111222,11111222,11111222' 
TABS,ioos:station:wmo:42046:1,2005-06-03T16:00:00Z,27.8903,-94.0367,4.0,6.519394144,166.1558372,8.22,'11111222,11111222,11111222' 
TABS,ioos:station:wmo:42046:1,2005-06-03T16:30:00Z,27.8903,-94.0367,4.0,6.022242107,169.9591862,7.56,'11111222,11111222,11111222' 
TABS,ioos:station:wmo:42046:1,2005-06-03T17:00:00Z,27.8903,-94.0367,4.0,6.377311346,171.0696412,7.97,'11111222,11111222,11111222' 
TABS,ioos:station:wmo:42046:1,2005-06-03T17:30:00Z,27.8903,-94.0367,4.0,5.329183802,166.8766889,6.45,'11111222,11111222,11111222' 
TABS,ioos:station:wmo:42046:1,2005-06-03T18:00:00Z,27.8903,-94.0367,4.0,4.593734864,163.3010053,5.66,'11111222,11111222,11111222' 
TABS,ioos:station:wmo:42046:1,2005-06-03T18:30:00Z,27.8903,-94.0367,4.0,4.305763579,147.7127988,5.88,'11111222,11111222,11111222' 
TABS,ioos:station:wmo:42046:1,2005-06-03T19:00:00Z,27.8903,-94.0367,4.0,5.002369439,159.6452969,6.5,'11111222,11111222,11111222' 
TABS,ioos:station:wmo:42046:1,2005-06-03T19:30:00Z,27.8903,-94.0367,4.0,4.682403229,153.7635596,6.42,'11111222,11111222,11111222' 
TABS,ioos:station:wmo:42046:1,2005-06-03T20:00:00Z,27.8903,-94.0367,4.0,4.510044346,143.3844801,5.64,'11111222,11111222,11111222' 
TABS,ioos:station:wmo:42046:1,2005-06-03T20:30:00Z,27.8903,-94.0367,4.0,4.656715581,146.2078472,5.8,'11111222,11111222,11111222' 
TABS,ioos:station:wmo:42046:1,2005-06-03T21:00:00Z,27.8903,-94.0367,4.0,4.794163118,139.3990108,6.06,'11111222,11111222,11111222' 
TABS,ioos:station:wmo:42046:1,2005-06-03T21:30:00Z,27.8903,-94.0367,4.0,5.189691706,137.8900034,6.88,'11111222,11111222,11111222' 
TABS,ioos:station:wmo:42046:1,2005-06-03T22:00:00Z,27.8903,-94.0367,4.0,5.676072586,130.2841055,7.47,'11111222,11111222,11111222' 
TABS,ioos:station:wmo:42046:1,2005-06-03T22:30:00Z,27.8903,-94.0367,4.0,6.208252572,126.3534042,7.95,'11111222,11111222,11111222' 
TABS,ioos:station:wmo:42046:1,2005-06-03T23:00:00Z,27.8903,-94.0367,4.0,6.944847011,123.667528,8.9,'11111222,11111222,11111222' 
TABS,ioos:station:wmo:42046:1,2005-06-03T23:30:00Z,27.8903,-94.0367,4.0,6.175670004,120.8845499,8.06,'11111222,11111222,11111222' 
TABS,ioos:station:wmo:42046:1,2005-06-04T00:00:00Z,27.8903,-94.0367,4.0,6.225704779,120.3959024,8.02,'11111222,11111222,11111222' 
TABS,ioos:station:wmo:42046:1,2005-06-04T00:30:00Z,27.8903,-94.0367,4.0,5.468692714,119.7062472,7.19,'11111222,11111222,11111222' 
TABS,ioos:station:wmo:42046:1,2005-06-04T01:00:00Z,27.8903,-94.0367,4.0,6.114245661,122.4427888,7.42,'11111222,11111222,11111222' 
TABS,ioos:station:wmo:42046:1,2005-06-04T01:30:00Z,27.8903,-94.0367,4.0,6.62371497,122.9226748,8.25,'11111222,11111222,11111222' 
TABS,ioos:station:wmo:42046:1,2005-06-04T02:00:00Z,27.8903,-94.0367,4.0,7.006004568,126.935657,8.67,'11111222,11111222,11111222' 
TABS,ioos:station:wmo:42046:1,2005-06-04T02:30:00Z,27.8903,-94.0367,4.0,7.166868214,131.8330358,8.85,'11111222,11111222,11111222' 
TABS,ioos:station:wmo:42046:1,2005-06-04T03:00:00Z,27.8903,-94.0367,4.0,7.798525502,132.7138638,10.0,'11111222,11111222,11111222' 
TABS,ioos:station:wmo:42046:1,2005-06-04T03:30:00Z,27.8903,-94.0367,4.0,7.76559077,133.8524691,9.51,'11111222,11111222,11111222' 
TABS,ioos:station:wmo:42046:1,2005-06-04T04:00:00Z,27.8903,-94.0367,4.0,8.062803483,136.2063616,10.13,'11111222,11111222,11111222' 
TABS,ioos:station:wmo:42046:1,2005-06-04T04:30:00Z,27.8903,-94.0367,4.0,8.334560576,138.0641937,11.19,'11111222,11111222,11111222' 
TABS,ioos:station:wmo:42046:1,2005-06-04T05:00:00Z,27.8903,-94.0367,4.0,8.68171642,141.4538675,10.82,'11111222,11111222,11111222' 
TABS,ioos:station:wmo:42046:1,2005-06-04T05:30:00Z,27.8903,-94.0367,4.0,8.890427436,145.309214,10.86,'11111222,11111222,11111222' 
TABS,ioos:station:wmo:42046:1,2005-06-04T06:00:00Z,27.8903,-94.0367,4.0,8.753056609,142.2401362,10.96,'11111222,11111222,11111222' 
TABS,ioos:station:wmo:42046:1,2005-06-04T06:30:00Z,27.8903,-94.0367,4.0,9.680253096,147.0161209,11.8,'11111222,11111222,11111222' 
TABS,ioos:station:wmo:42046:1,2005-06-04T07:00:00Z,27.8903,-94.0367,4.0,8.588294359,150.5698431,11.13,'11111222,11111222,11111222' 
TABS,ioos:station:wmo:42046:1,2005-06-04T07:30:00Z,27.8903,-94.0367,4.0,8.638634151,151.0616312,10.98,'11111222,11111222,11111222' 
TABS,ioos:station:wmo:42046:1,2005-06-04T08:00:00Z,27.8903,-94.0367,4.0,8.556319302,152.5068317,10.34,'11111222,11111222,11111222' 
TABS,ioos:station:wmo:42046:1,2005-06-04T08:30:00Z,27.8903,-94.0367,4.0,7.905953453,151.6847957,9.92,'11111222,11111222,11111222' 
TABS,ioos:station:wmo:42046:1,2005-06-04T09:00:00Z,27.8903,-94.0367,4.0,8.355656767,159.1793663,9.91,'11111222,11111222,11111222' 
TABS,ioos:station:wmo:42046:1,2005-06-04T09:30:00Z,27.8903,-94.0367,4.0,7.999249965,156.5759538,10.1,'11111222,11111222,11111222' 
TABS,ioos:station:wmo:42046:1,2005-06-04T10:00:00Z,27.8903,-94.0367,4.0,7.609894874,148.3779847,9.5,'11111222,11111222,11111222' 
TABS,ioos:station:wmo:42046:1,2005-06-04T10:30:00Z,27.8903,-94.0367,4.0,7.204116879,147.4131976,9.11,'11111222,11111222,11111222' 
TABS,ioos:station:wmo:42046:1,2005-06-04T11:00:00Z,27.8903,-94.0367,4.0,6.875354536,152.1679902,9.09,'11111222,11111222,11111222' 
TABS,ioos:station:wmo:42046:1,2005-06-04T11:30:00Z,27.8903,-94.0367,4.0,6.845472957,148.0747504,8.16,'11111222,11111222,11111222' 
TABS,ioos:station:wmo:42046:1,2005-06-04T12:00:00Z,27.8903,-94.0367,4.0,6.877455925,144.9468474,8.68,'11111222,11111222,11111222' 
TABS,ioos:station:wmo:42046:1,2005-06-04T12:30:00Z,27.8903,-94.0367,4.0,6.733929017,149.9704531,8.84,'11111222,11111222,11111222' 
TABS,ioos:station:wmo:42046:1,2005-06-04T13:00:00Z,27.8903,-94.0367,4.0,6.807121271,145.3530486,8.45,'11111222,11111222,11111222' 
TABS,ioos:station:wmo:42046:1,2005-06-04T13:30:00Z,27.8903,-94.0367,4.0,6.743826807,148.3371229,8.25,'11111222,11111222,11111222' 
TABS,ioos:station:wmo:42046:1,2005-06-04T14:00:00Z,27.8903,-94.0367,4.0,7.058817181,150.2755342,9.03,'11111222,11111222,11111222' 
TABS,ioos:station:wmo:42046:1,2005-06-04T14:30:00Z,27.8903,-94.0367,4.0,6.660187685,152.3579286,8.23,'11111222,11111222,11111222' 
TABS,ioos:station:wmo:42046:1,2005-06-04T15:00:00Z,27.8903,-94.0367,4.0,6.561280363,155.7008525,8.3,'11111222,11111222,11111222' 
TABS,ioos:station:wmo:42046:1,2005-06-04T15:30:00Z,27.8903,-94.0367,4.0,6.669047908,152.3977879,8.41,'11111222,11111222,11111222' 
TABS,ioos:station:wmo:42046:1,2005-06-04T16:00:00Z,27.8903,-94.0367,4.0,7.122338099,149.0779149,8.83,'11111222,11111222,11111222' 
TABS,ioos:station:wmo:42046:1,2005-06-04T16:30:00Z,27.8903,-94.0367,4.0,7.246302505,148.3720622,8.84,'11111222,11111222,11111222' 
TABS,ioos:station:wmo:42046:1,2005-06-04T17:00:00Z,27.8903,-94.0367,4.0,7.05113466,148.1585543,8.83,'11111222,11111222,11111222' 
TABS,ioos:station:wmo:42046:1,2005-06-04T17:30:00Z,27.8903,-94.0367,4.0,7.115848509,145.0148684,8.97,'11111222,11111222,11111222' 
TABS,ioos:station:wmo:42046:1,2005-06-04T18:00:00Z,27.8903,-94.0367,4.0,7.57,141.8133158,9.35,'11111222,11111222,11111222' 
TABS,ioos:station:wmo:42046:1,2005-06-04T18:30:00Z,27.8903,-94.0367,4.0,7.470053547,139.6153139,9.2,'11111222,11111222,11111222' 